STARLINK-1817, 46715

Orbit data source: Space-Track

STARLINK-1817, 46715 is a payload satellite owned by SpaceX/Seattle (US) in LEO that was launched on Sun, 18 Oct 2020 UTC via an FALCON 9 launch vehicle from the Air Force Eastern Test Range (AFETR). Payload-class satellites include a variety of spacecraft equipped with specific instruments for various scientific and technological missions. These include communications satellites like Starlink; space stations such as the ISS; scientific satellites like the Hubble; Earth observation satellites from companies like Planet Labs, Umbra, and HawkEye 360; GPS; miniature CubeSats for education and research; and military/defense satellites.

Loading next visibility...
Identifier
46715, 2020-073AX
Orbit
LEO
Country
Flag of USUS
Related business
Manufacturer
SpaceX/Seattle
Mission
Partially operational Commercial Communications
Bus & Motor
STARLINK, Unknown motor
Mass
260 kg wet, ~248 kg dry
Launch date (UTC)
2020-10-18 (6 years ago)
Launch vehicle
FALCON 9
Launch site
Air Force Eastern Test Range (AFETR)
Object type
Payload
Rocket body
Debris
Shape & HBR
Box + 1 Pan, 10.1 m
Radar Cross Section
13.562 m², Large (>1 m²)

Expand to show TLE details & history
Last TLE update: 5 hours ago

TLE from 5 hours ago
0 STARLINK-1817
1 46715U 20073AX  26169.00003472  .00189988  24361-4  60377-3 0  9994
2 46715  53.0407  79.3169 0003388 208.9341 247.0365 15.90836047  5957
Epoch: 2026-06-18T00:00Z
TLE epoch observation values (Epoch: 2026-06-18T00:00:02.999Z)
Latitude
52.79005°
Longitude
-87.12471°
Altitude
307.239 km
Speed
7.73 km/s
True Right ascension
11h 56m 32s
True Declination
52° 36' 47"
Sunlit
Object was in daylight at epoch
Visualization orbit readout
Latitude
Unknown
Longitude
Unknown
Altitude
Unknown
Speed
Unknown
Apparent Right ascension
Unknown
Apparent Declination
Unknown
Sunlit
N/A
Visualization observer readout
Local Sidereal Time
16:08:35
Azimuth
Unknown
Elevation
Unknown
Doppler factor
Unknown
Orbital elements
Apogee altitude
302.487 km
Perigee altitude
297.962 km
Semi-major axis
6,678.362 km
Eccentricity
0.00034
Inclination
53.0407°
RAAN
79.3169°
Arg. of periapsis
208.9341°
True anomaly
247.00076°
Mean anomaly
247.0365°
Eccentric anomaly
247.01863°
Mean motion
3.97684 °/min
Orbital period
90.52 mins
BSTAR
0.00060377
Loading maneuver chart data...
Computing Atmospheric mass density...

Documentation

Showing up to 5 results
|